Regional Weather Roundup
Issued by NWS

Home | Current Version | Previous Version | Text Only | Print | Product List | Glossary Off
Versions: 1 2 3 4 5 6 7 8 9 10 11 12 13 14 15 16 17 18 19 20 21 22 23 24 25 26 27 28 29 30 31 32 33 34 35 36 37 38 39 40 41 42 43 44 45 46 47 48 49 50

261
ASUS45 KCYS 280110
RWRWY

WYOMING REGIONAL WEATHER ROUNDUP
NATIONAL WEATHER SERVICE CHEYENNE WY
700 PM MDT THU APR 27 2017

NOTE:  "FAIR" INDICATES FEW OR NO CLOUDS BELOW 12,000 FEET
WITH NO SIGNIFICANT WEATHER AND/OR OBSTRUCTIONS TO VISIBILITY.

WYZ001-280200-
YELLOWSTONE NATIONAL PARK

CITY           SKY/WX    TMP DP  RH WIND       PRES   REMARKS
LK YELLOWSTONE   N/A     27  23  85 W7        29.73S WCI  19
W YELLOWSTONE  NOT AVBL

$$
WYZ002>013-054>058-071-098>099-280200-
NORTHERN WYOMING

CITY           SKY/WX    TMP DP  RH WIND       PRES   REMARKS
JACKSON        PTSUNNY   34  28  80 W8        29.74R WCI  27
CODY           LGT RAIN  38  34  85 N13G18    29.70R WCI  30
GREYBULL       PTSUNNY   50  32  50 NW28G39   29.58R
WORLAND        CLOUDY    47  35  63 NW21G29   29.58R
SHERIDAN       LGT SNOW  33  32  96 NW9       29.69R FOG     WCI  25
BUFFALO        LGT SNOW  34  31  88 NW15      29.66R VSB 1   WCI  24
GILLETTE       RAIN      36  35  96 NE10      29.64R WCI  28
HULETT         CLOUDY    37  34  87 E10       29.66R WCI  30
NEWCASTLE      LGT RAIN  37  34  87 E9G17     29.63R WCI  31

$$
WYZ014>020-022>026-101>103-280200-
CENTRAL WYOMING

CITY           SKY/WX    TMP DP  RH WIND       PRES   REMARKS
BIG PINEY      FAIR      36  18  48 NW18      29.71R WCI  26
PINEDALE       MOCLDY    36  21  55 NW24G31   29.70R WCI  24
DUBOIS         CLOUDY    32  23  69 NW20      29.66S WCI  20
LANDER         CLOUDY    35  31  85 NW10      29.65R WCI  27
RIVERTON       LGT SNOW  32  32 100 W24       29.64S VSB 3/4 WCI  19
CASPER         CLOUDY    36  33  89 N9        29.60R WCI  29
DOUGLAS        LGT RAIN  39  36  89 S3        29.58R FOG

$$
WYZ021-027>030-104>119-280200-
SOUTHERN WYOMING

CITY           SKY/WX    TMP DP  RH WIND       PRES   REMARKS
EVANSTON       CLOUDY    35  24  64 W15       29.79R WCI  25
KEMMERER       LGT SNOW  32  27  80 NW21G28   29.75R WCI  20
FORT BRIDGER   FAIR      36  23  59 W24G30    29.79R WCI  24
ROCK SPRINGS   FAIR      39  16  39 W26G35    29.70R WCI  28
DIXON            N/A     45  23  43 NW15G22   29.70R
RAWLINS        LGT SNOW  34  28  79 W28G33    29.62R WCI  21
SARATOGA       FAIR      39  27  60 W16G29    29.65S WCI  30
LARAMIE        FAIR      36  25  64 W15G22    29.60R WCI  27
CHEYENNE       FAIR      46  26  45 NW13G22   29.57R
TORRINGTON     MOCLDY    45  41  86 SE10      29.55R
PINE BLUFFS    FAIR      39  37  93 CALM      29.57R

$$




USA.gov is the U.S. government's official web portal to all federal, state and local government web resources and services.